QPF
0.00 0.00 0.00 0.00 0.00 0.00 0.00 0.00 0.00 0.00 0.00 0.01 0.01 0.02 0.03 0.03 0.02 0.02 0.02 0.02 0.02 0.02 0.04 0.03 0.02 0.01 0.01 0.01 0.01 0.01 0.01 0.02 0.02 0.03 0.04 0.04 0.03 0.03 0.05 0.04 0.02 0.02 0.01 0.01
0.01 0.00 0.00 0.00 0.00 0.00 0.00 0.00 0.00 0.00 0.00 0.00 0.00 0.01 0.01 0.03 0.03 0.02 0.02 0.02 0.02 0.03 0.02 0.03 0.03 0.02 0.01 0.01 0.01 0.01 0.01 0.02 0.02 0.02 0.02 0.02 0.03 0.05 0.05 0.03 0.02 0.02 0.02 0.02
0.00 0.00 0.00 0.00 0.00 0.00 0.00 0.00 0.00 0.00 0.00 0.00 0.00 0.01 0.02 0.03 0.04 0.03 0.02 0.02 0.03 0.04 0.03 0.04 0.03 0.02 0.01 0.01 0.01 0.01 0.01 0.03 0.02 0.01 0.02 0.01 0.01 0.03 0.03 0.03 0.03 0.02 0.02 0.01
0.00 0.00 0.00 0.00 0.00 0.00 0.00 0.00 0.00 0.00 0.00 0.00 0.00 0.02 0.02 0.03 0.04 0.04 0.03 0.01 0.03 0.03 0.03 0.02 0.02 0.02 0.02 0.02 0.01 0.01 0.01 0.01 0.01 0.01 0.01 0.01 0.01 0.01 0.02 0.03 0.03 0.02 0.01 0.01
0.00 0.00 0.00 0.00 0.00 0.00 0.00 0.00 0.00 0.00 0.00 0.00 0.00 0.03 0.03 0.02 0.03 0.04 0.04 0.02 0.02 0.04 0.04 0.04 0.03 0.02 0.03 0.02 0.02 0.02 0.01 0.01 0.01 0.01 0.01 0.01 0.01 0.01 0.01 0.02 0.02 0.02 0.02 0.03
0.00 0.00 0.00 0.00 0.00 0.00 0.00 0.00 0.00 0.00 0.00 0.00 0.00 0.01 0.03 0.03 0.03 0.03 0.04 0.03 0.02 0.02 0.04 0.03 0.04 0.04 0.03 0.04 0.06 0.06 0.04 0.03 0.03 0.03 0.02 0.02 0.02 0.02 0.01 0.02 0.02 0.02 0.02 0.02
0.00 0.01 0.00 0.00 0.00 0.00 0.00 0.00 0.00 0.00 0.00 0.00 0.00 0.01 0.01 0.02 0.02 0.02 0.02 0.02 0.02 0.01 0.02 0.03 0.03 0.04 0.07 0.10 0.08 0.07 0.07 0.04 0.04 0.03 0.03 0.02 0.03 0.03 0.02 0.02 0.02 0.02 0.02 0.02
0.00 0.01 0.01 0.00 0.00 0.00 0.00 0.00 0.00 0.00 0.00 0.00 0.01 0.01 0.01 0.01 0.01 0.02 0.02 0.02 0.02 0.02 0.01 0.02 0.04 0.05 0.04 0.08 0.11 0.07 0.06 0.06 0.06 0.05 0.04 0.03 0.02 0.03 0.03 0.04 0.05 0.06 0.06 0.05
0.01 0.01 0.01 0.01 0.01 0.00 0.00 0.00 0.00 0.00 0.00 0.01 0.01 0.01 0.01 0.01 0.01 0.01 0.02 0.02 0.02 0.02 0.01 0.02 0.04 0.03 0.02 0.02 0.03 0.04 0.04 0.04 0.06 0.06 0.06 0.05 0.04 0.03 0.05 0.05 0.06 0.06 0.07 0.08
0.02 0.02 0.02 0.02 0.02 0.02 0.01 0.00 0.00 0.00 0.00 0.01 0.02 0.01 0.02 0.02 0.02 0.02 0.02 0.02 0.02 0.02 0.01 0.01 0.03 0.03 0.03 0.03 0.02 0.03 0.03 0.04 0.05 0.06 0.06 0.06 0.06 0.06 0.06 0.06 0.06 0.05 0.05 0.05
0.03 0.03 0.03 0.02 0.03 0.03 0.02 0.01 0.01 0.01 0.01 0.02 0.02 0.02 0.02 0.03 0.03 0.03 0.03 0.04 0.04 0.03 0.01 0.01 0.02 0.03 0.04 0.06 0.07 0.06 0.06 0.06 0.07 0.07 0.07 0.07 0.08 0.08 0.07 0.07 0.06 0.06 0.05 0.05
0.04 0.03 0.03 0.03 0.04 0.04 0.03 0.02 0.02 0.01 0.01 0.01 0.01 0.01 0.02 0.03 0.03 0.03 0.04 0.04 0.04 0.04 0.02 0.02 0.02 0.03 0.03 0.05 0.08 0.09 0.08 0.06 0.07 0.08 0.06 0.07 0.07 0.08 0.10 0.09 0.09 0.08 0.06 0.05
0.03 0.03 0.04 0.05 0.06 0.06 0.05 0.04 0.03 0.02 0.02 0.01 0.02 0.02 0.01 0.02 0.03 0.03 0.03 0.03 0.04 0.04 0.02 0.02 0.02 0.03 0.03 0.03 0.03 0.04 0.05 0.05 0.04 0.04 0.03 0.03 0.04 0.05 0.06 0.07 0.07 0.05 0.04 0.04
0.03 0.05 0.06 0.05 0.04 0.04 0.06 0.04 0.03 0.03 0.03 0.02 0.04 0.04 0.03 0.03 0.03 0.03 0.03 0.03 0.04 0.04 0.02 0.02 0.02 0.03 0.03 0.03 0.03 0.03 0.04 0.04 0.03 0.03 0.03 0.03 0.03 0.03 0.03 0.04 0.05 0.04 0.04 0.04
0.08 0.05 0.04 0.04 0.03 0.04 0.04 0.03 0.03 0.04 0.04 0.03 0.04 0.03 0.03 0.04 0.04 0.03 0.03 0.03 0.02 0.03 0.03 0.02 0.03 0.04 0.04 0.04 0.04 0.04 0.05 0.05 0.04 0.04 0.03 0.03 0.03 0.03 0.03 0.03 0.03 0.02 0.03 0.03
0.07 0.05 0.04 0.03 0.03 0.03 0.02 0.02 0.03 0.03 0.04 0.05 0.06 0.06 0.04 0.04 0.05 0.04 0.03 0.03 0.02 0.02 0.02 0.02 0.03 0.05 0.06 0.06 0.05 0.06 0.06 0.06 0.05 0.05 0.04 0.03 0.03 0.03 0.03 0.03 0.03 0.02 0.01 0.02
0.08 0.06 0.04 0.04 0.04 0.03 0.02 0.02 0.03 0.03 0.03 0.05 0.07 0.12 0.06 0.05 0.05 0.05 0.04 0.03 0.03 0.02 0.02 0.02 0.04 0.08 0.10 0.09 0.06 0.07 0.06 0.06 0.06 0.05 0.05 0.04 0.03 0.02 0.02 0.02 0.02 0.02 0.02 0.02
0.07 0.05 0.04 0.04 0.04 0.03 0.03 0.03 0.03 0.04 0.04 0.06 0.05 0.08 0.09 0.07 0.05 0.05 0.05 0.05 0.04 0.03 0.02 0.02 0.03 0.07 0.12 0.11 0.07 0.04 0.03 0.04 0.05 0.05 0.05 0.05 0.05 0.04 0.03 0.02 0.02 0.03 0.04 0.03
0.06 0.05 0.04 0.04 0.04 0.04 0.04 0.04 0.04 0.04 0.04 0.09 0.11 0.07 0.05 0.05 0.06 0.05 0.05 0.05 0.04 0.03 0.02 0.02 0.04 0.07 0.08 0.07 0.07 0.07 0.06 0.05 0.05 0.06 0.06 0.06 0.06 0.05 0.05 0.04 0.03 0.03 0.04 0.05
0.07 0.07 0.07 0.06 0.05 0.05 0.04 0.04 0.04 0.04 0.05 0.06 0.08 0.05 0.04 0.05 0.06 0.05 0.05 0.05 0.05 0.03 0.02 0.02 0.05 0.06 0.05 0.04 0.04 0.03 0.05 0.09 0.10 0.08 0.06 0.05 0.05 0.05 0.05 0.05 0.05 0.05 0.05 0.08
0.06 0.06 0.07 0.06 0.04 0.04 0.04 0.04 0.04 0.04 0.03 0.03 0.03 0.02 0.03 0.04 0.05 0.05 0.05 0.05 0.04 0.03 0.02 0.02 0.03 0.04 0.04 0.04 0.03 0.02 0.02 0.04 0.07 0.10 0.08 0.06 0.05 0.05 0.04 0.05 0.06 0.06 0.06 0.09
0.06 0.06 0.05 0.05 0.05 0.04 0.04 0.04 0.04 0.04 0.04 0.04 0.03 0.03 0.04 0.04 0.04 0.05 0.05 0.05 0.03 0.03 0.03 0.03 0.03 0.04 0.04 0.04 0.04 0.04 0.04 0.04 0.05 0.07 0.08 0.07 0.06 0.07 0.06 0.04 0.04 0.04 0.04 0.04
0.06 0.06 0.06 0.07 0.07 0.05 0.05 0.05 0.05 0.04 0.06 0.08 0.05 0.04 0.05 0.05 0.05 0.05 0.04 0.03 0.04 0.04 0.03 0.03 0.05 0.05 0.05 0.05 0.05 0.05 0.05 0.05 0.05 0.05 0.06 0.06 0.05 0.06 0.05 0.05 0.03 0.02 0.02 0.03
0.05 0.05 0.07 0.08 0.08 0.06 0.05 0.04 0.06 0.08 0.08 0.13 0.10 0.06 0.05 0.06 0.06 0.05 0.03 0.03 0.03 0.04 0.04 0.04 0.05 0.06 0.07 0.07 0.06 0.05 0.04 0.05 0.05 0.06 0.05 0.05 0.05 0.04 0.04 0.04 0.03 0.02 0.02 0.02
0.04 0.04 0.04 0.06 0.06 0.06 0.05 0.05 0.06 0.07 0.08 0.12 0.11 0.08 0.07 0.06 0.05 0.04 0.03 0.03 0.03 0.04 0.05 0.05 0.05 0.05 0.05 0.06 0.07 0.07 0.06 0.05 0.04 0.05 0.05 0.05 0.05 0.04 0.03 0.03 0.03 0.03 0.03 0.02
0.03 0.03 0.03 0.04 0.04 0.04 0.05 0.05 0.05 0.06 0.07 0.08 0.07 0.07 0.06 0.04 0.04 0.03 0.03 0.03 0.03 0.04 0.04 0.05 0.05 0.05 0.04 0.03 0.04 0.05 0.06 0.06 0.05 0.04 0.03 0.03 0.04 0.04 0.04 0.04 0.04 0.03 0.03 0.04
0.03 0.04 0.04 0.04 0.04 0.04 0.05 0.06 0.06 0.07 0.09 0.07 0.05 0.05 0.04 0.03 0.03 0.04 0.03 0.03 0.03 0.03 0.04 0.05 0.05 0.04 0.03 0.03 0.03 0.03 0.04 0.05 0.05 0.05 0.04 0.03 0.04 0.05 0.05 0.05 0.04 0.03 0.04 0.04
MSLP
1017.69 1017.30 1016.89 1016.48 1016.06 1015.57 1014.99 1014.28 1013.41 1012.39 1011.24 1010.02 1008.77 1007.59 1006.52 1005.63 1004.95 1004.47 1004.19 1004.09 1004.13 1004.28 1004.53 1004.87 1005.28 1005.77 1006.33 1006.96 1007.63 1008.32 1009.01 1009.67 1010.27 1010.82 1011.31 1011.75 1012.17 1012.59 1013.01 1013.45 1013.91 1014.36 1014.80 1015.20
1018.50 1018.04 1017.49 1016.89 1016.22 1015.48 1014.68 1013.81 1012.87 1011.86 1010.81 1009.73 1008.65 1007.61 1006.65 1005.77 1005.01 1004.38 1003.88 1003.52 1003.32 1003.27 1003.38 1003.66 1004.10 1004.69 1005.41 1006.21 1007.06 1007.90 1008.70 1009.43 1010.07 1010.62 1011.10 1011.54 1011.98 1012.42 1012.90 1013.41 1013.94 1014.48 1014.99 1015.45
1018.96 1018.43 1017.78 1017.02 1016.18 1015.29 1014.37 1013.43 1012.49 1011.56 1010.63 1009.71 1008.80 1007.89 1006.98 1006.09 1005.21 1004.39 1003.63 1003.00 1002.52 1002.24 1002.20 1002.40 1002.84 1003.51 1004.36 1005.33 1006.35 1007.35 1008.28 1009.10 1009.79 1010.38 1010.87 1011.32 1011.78 1012.26 1012.79 1013.37 1013.99 1014.60 1015.19 1015.70
1019.04 1018.44 1017.70 1016.84 1015.92 1014.95 1014.00 1013.08 1012.21 1011.40 1010.63 1009.88 1009.12 1008.33 1007.46 1006.53 1005.53 1004.51 1003.50 1002.58 1001.83 1001.32 1001.09 1001.19 1001.62 1002.34 1003.29 1004.40 1005.57 1006.72 1007.77 1008.69 1009.45 1010.08 1010.61 1011.10 1011.58 1012.11 1012.70 1013.34 1014.03 1014.72 1015.37 1015.93
1018.74 1018.07 1017.26 1016.36 1015.41 1014.45 1013.53 1012.69 1011.95 1011.30 1010.70 1010.13 1009.52 1008.83 1008.00 1007.03 1005.93 1004.72 1003.49 1002.33 1001.33 1000.59 1000.20 1000.19 1000.56 1001.29 1002.30 1003.51 1004.79 1006.06 1007.22 1008.23 1009.08 1009.77 1010.35 1010.88 1011.41 1011.98 1012.62 1013.32 1014.07 1014.81 1015.51 1016.11
1018.12 1017.38 1016.53 1015.62 1014.69 1013.78 1012.96 1012.25 1011.65 1011.17 1010.76 1010.35 1009.89 1009.29 1008.51 1007.53 1006.35 1005.02 1003.62 1002.26 1001.07 1000.15 999.61 999.48 999.78 1000.49 1001.51 1002.76 1004.11 1005.45 1006.70 1007.79 1008.71 1009.47 1010.11 1010.69 1011.27 1011.89 1012.57 1013.31 1014.08 1014.86 1015.58 1016.19
1017.25 1016.46 1015.60 1014.70 1013.83 1013.01 1012.31 1011.73 1011.30 1010.97 1010.72 1010.47 1010.13 1009.63 1008.92 1007.95 1006.75 1005.35 1003.86 1002.39 1001.07 1000.03 999.36 999.13 999.35 1000.00 1000.99 1002.23 1003.59 1004.97 1006.26 1007.41 1008.40 1009.22 1009.92 1010.56 1011.18 1011.83 1012.53 1013.29 1014.07 1014.84 1015.55 1016.16
1016.21 1015.38 1014.54 1013.69 1012.90 1012.19 1011.61 1011.17 1010.88 1010.70 1010.58 1010.45 1010.22 1009.81 1009.16 1008.25 1007.07 1005.69 1004.18 1002.68 1001.31 1000.20 999.46 999.14 999.28 999.85 1000.78 1001.97 1003.30 1004.66 1005.97 1007.15 1008.18 1009.06 1009.81 1010.49 1011.15 1011.82 1012.52 1013.26 1014.02 1014.76 1015.44 1016.02
1015.04 1014.23 1013.42 1012.66 1011.96 1011.37 1010.91 1010.59 1010.41 1010.34 1010.32 1010.28 1010.13 1009.80 1009.24 1008.40 1007.30 1005.98 1004.53 1003.07 1001.72 1000.61 999.83 999.47 999.53 1000.01 1000.85 1001.96 1003.23 1004.55 1005.83 1007.02 1008.07 1008.98 1009.78 1010.50 1011.18 1011.85 1012.53 1013.23 1013.94 1014.62 1015.24 1015.77
1013.78 1013.01 1012.28 1011.61 1011.03 1010.56 1010.22 1010.01 1009.92 1009.92 1009.96 1009.98 1009.89 1009.62 1009.13 1008.39 1007.39 1006.19 1004.86 1003.49 1002.22 1001.16 1000.40 1000.01 1000.02 1000.42 1001.16 1002.17 1003.34 1004.59 1005.83 1007.00 1008.06 1008.99 1009.82 1010.55 1011.24 1011.90 1012.55 1013.19 1013.83 1014.43 1014.98 1015.45
1012.38 1011.70 1011.08 1010.54 1010.10 1009.75 1009.52 1009.40 1009.39 1009.44 1009.51 1009.56 1009.51 1009.30 1008.88 1008.23 1007.36 1006.29 1005.10 1003.88 1002.73 1001.76 1001.05 1000.66 1000.64 1000.96 1001.61 1002.51 1003.59 1004.75 1005.93 1007.07 1008.11 1009.05 1009.89 1010.63 1011.31 1011.95 1012.55 1013.13 1013.69 1014.21 1014.68 1015.09
1010.81 1010.24 1009.76 1009.37 1009.08 1008.87 1008.76 1008.74 1008.79 1008.88 1008.98 1009.05 1009.02 1008.85 1008.49 1007.94 1007.19 1006.27 1005.24 1004.17 1003.16 1002.30 1001.67 1001.31 1001.27 1001.54 1002.10 1002.91 1003.89 1004.97 1006.08 1007.17 1008.19 1009.12 1009.95 1010.69 1011.36 1011.96 1012.52 1013.03 1013.51 1013.95 1014.35 1014.70
1009.03 1008.60 1008.27 1008.04 1007.90 1007.85 1007.87 1007.95 1008.08 1008.22 1008.36 1008.44 1008.44 1008.30 1008.01 1007.54 1006.90 1006.12 1005.24 1004.34 1003.47 1002.73 1002.18 1001.87 1001.83 1002.07 1002.56 1003.29 1004.18 1005.18 1006.22 1007.26 1008.24 1009.15 1009.97 1010.70 1011.34 1011.91 1012.42 1012.88 1013.29 1013.66 1014.00 1014.30
1007.06 1006.74 1006.56 1006.49 1006.52 1006.63 1006.79 1006.99 1007.22 1007.44 1007.62 1007.75 1007.77 1007.68 1007.44 1007.05 1006.52 1005.86 1005.12 1004.36 1003.63 1003.01 1002.54 1002.28 1002.26 1002.49 1002.94 1003.60 1004.42 1005.34 1006.32 1007.30 1008.25 1009.12 1009.92 1010.62 1011.24 1011.77 1012.23 1012.64 1013.00 1013.32 1013.61 1013.87
1004.93 1004.72 1004.67 1004.75 1004.94 1005.21 1005.52 1005.86 1006.20 1006.51 1006.77 1006.96 1007.03 1006.99 1006.81 1006.50 1006.05 1005.50 1004.88 1004.24 1003.64 1003.12 1002.74 1002.55 1002.56 1002.78 1003.21 1003.83 1004.59 1005.46 1006.37 1007.30 1008.19 1009.03 1009.78 1010.45 1011.03 1011.52 1011.95 1012.31 1012.63 1012.91 1013.17 1013.42
1002.78 1002.65 1002.70 1002.91 1003.24 1003.65 1004.11 1004.59 1005.06 1005.48 1005.83 1006.09 1006.23 1006.25 1006.13 1005.89 1005.52 1005.06 1004.55 1004.01 1003.51 1003.10 1002.80 1002.67 1002.72 1002.97 1003.39 1003.98 1004.71 1005.52 1006.38 1007.25 1008.09 1008.87 1009.58 1010.20 1010.73 1011.19 1011.57 1011.90 1012.18 1012.44 1012.69 1012.92
1000.79 1000.70 1000.82 1001.12 1001.55 1002.09 1002.68 1003.28 1003.86 1004.39 1004.84 1005.18 1005.39 1005.47 1005.42 1005.24 1004.95 1004.57 1004.14 1003.70 1003.29 1002.97 1002.76 1002.70 1002.80 1003.07 1003.51 1004.09 1004.79 1005.56 1006.37 1007.18 1007.96 1008.68 1009.33 1009.90 1010.38 1010.78 1011.13 1011.43 1011.69 1011.93 1012.17 1012.41
999.15 999.08 999.23 999.57 1000.07 1000.68 1001.35 1002.04 1002.72 1003.33 1003.86 1004.27 1004.55 1004.69 1004.70 1004.57 1004.34 1004.03 1003.68 1003.33 1003.01 1002.77 1002.65 1002.66 1002.82 1003.14 1003.60 1004.19 1004.87 1005.61 1006.37 1007.13 1007.84 1008.50 1009.08 1009.58 1010.01 1010.37 1010.67 1010.94 1011.19 1011.43 1011.67 1011.92
998.02 997.95 998.10 998.46 998.97 999.60 1000.30 1001.03 1001.74 1002.39 1002.96 1003.42 1003.74 1003.93 1003.98 1003.91 1003.74 1003.49 1003.21 1002.94 1002.71 1002.56 1002.52 1002.61 1002.84 1003.21 1003.70 1004.30 1004.98 1005.69 1006.42 1007.12 1007.77 1008.36 1008.87 1009.31 1009.68 1009.99 1010.27 1010.51 1010.75 1010.99 1011.24 1011.51
997.51 997.42 997.56 997.88 998.35 998.95 999.62 1000.32 1001.01 1001.66 1002.22 1002.68 1003.02 1003.23 1003.31 1003.28 1003.16 1002.98 1002.77 1002.58 1002.43 1002.37 1002.42 1002.59 1002.89 1003.31 1003.85 1004.47 1005.14 1005.83 1006.52 1007.17 1007.76 1008.29 1008.74 1009.12 1009.44 1009.72 1009.97 1010.20 1010.44 1010.69 1010.95 1011.24
997.58 997.49 997.59 997.85 998.25 998.76 999.34 999.95 1000.57 1001.15 1001.66 1002.09 1002.41 1002.61 1002.71 1002.71 1002.64 1002.52 1002.39 1002.28 1002.22 1002.25 1002.39 1002.64 1003.01 1003.49 1004.06 1004.69 1005.37 1006.04 1006.70 1007.30 1007.85 1008.32 1008.72 1009.05 1009.34 1009.59 1009.83 1010.06 1010.31 1010.57 1010.86 1011.17
998.12 998.04 998.09 998.28 998.58 998.97 999.42 999.90 1000.39 1000.86 1001.29 1001.65 1001.92 1002.11 1002.21 1002.24 1002.22 1002.16 1002.10 1002.08 1002.12 1002.24 1002.46 1002.79 1003.22 1003.75 1004.35 1005.00 1005.67 1006.33 1006.95 1007.52 1008.02 1008.45 1008.82 1009.12 1009.39 1009.63 1009.87 1010.12 1010.38 1010.67 1010.99 1011.32
998.94 998.87 998.89 999.00 999.19 999.43 999.73 1000.06 1000.41 1000.75 1001.07 1001.34 1001.57 1001.73 1001.84 1001.90 1001.92 1001.94 1001.96 1002.03 1002.15 1002.36 1002.66 1003.06 1003.55 1004.12 1004.74 1005.40 1006.06 1006.69 1007.29 1007.83 1008.30 1008.70 1009.04 1009.34 1009.60 1009.85 1010.11 1010.38 1010.67 1010.99 1011.34 1011.69
999.81 999.76 999.76 999.80 999.88 999.99 1000.15 1000.33 1000.53 1000.74 1000.96 1001.16 1001.33 1001.48 1001.60 1001.70 1001.78 1001.87 1001.99 1002.14 1002.35 1002.64 1003.02 1003.47 1004.00 1004.60 1005.23 1005.88 1006.53 1007.15 1007.72 1008.23 1008.68 1009.06 1009.40 1009.69 1009.97 1010.24 1010.53 1010.83 1011.16 1011.51 1011.87 1012.25
1000.51 1000.50 1000.49 1000.48 1000.47 1000.48 1000.51 1000.58 1000.66 1000.78 1000.91 1001.06 1001.21 1001.36 1001.51 1001.66 1001.82 1001.99 1002.19 1002.43 1002.73 1003.10 1003.53 1004.03 1004.59 1005.20 1005.84 1006.48 1007.10 1007.70 1008.24 1008.73 1009.17 1009.55 1009.88 1010.19 1010.49 1010.78 1011.09 1011.43 1011.78 1012.16 1012.54 1012.92
1000.92 1000.94 1000.93 1000.89 1000.84 1000.78 1000.74 1000.73 1000.75 1000.81 1000.91 1001.04 1001.20 1001.38 1001.58 1001.80 1002.03 1002.29 1002.58 1002.91 1003.29 1003.72 1004.20 1004.74 1005.31 1005.93 1006.55 1007.18 1007.79 1008.36 1008.88 1009.36 1009.78 1010.16 1010.50 1010.82 1011.13 1011.45 1011.78 1012.13 1012.50 1012.88 1013.27 1013.64
1000.98 1001.04 1001.04 1001.01 1000.94 1000.87 1000.81 1000.78 1000.78 1000.84 1000.95 1001.11 1001.31 1001.54 1001.81 1002.11 1002.43 1002.77 1003.14 1003.55 1003.99 1004.47 1005.00 1005.56 1006.15 1006.76 1007.38 1007.99 1008.58 1009.13 1009.64 1010.10 1010.51 1010.89 1011.23 1011.56 1011.88 1012.20 1012.54 1012.89 1013.26 1013.63 1013.99 1014.33
Thickness
5771 5783 5788 5788 5790 5792 5784 5775 5766 5775 5780 5791 5801 5807 5812 5815 5813 5812 5810 5808 5806 5805 5805 5805 5804 5801 5798 5796 5793 5790 5785 5780 5776 5774 5771 5767 5764 5762 5759 5757 5756 5754 5752 5750
5762 5777 5780 5779 5786 5788 5786 5785 5780 5779 5781 5801 5807 5808 5806 5808 5808 5805 5805 5807 5805 5804 5802 5802 5802 5799 5797 5794 5791 5788 5783 5779 5776 5773 5769 5766 5763 5760 5757 5755 5753 5751 5749 5747
5734 5756 5762 5752 5772 5779 5779 5783 5780 5770 5781 5797 5796 5798 5800 5802 5803 5802 5803 5804 5802 5802 5801 5800 5800 5799 5795 5792 5790 5786 5781 5777 5774 5771 5768 5765 5763 5758 5755 5753 5751 5748 5746 5744
5720 5733 5722 5748 5778 5782 5778 5778 5782 5782 5787 5792 5794 5796 5800 5802 5800 5799 5800 5799 5799 5799 5799 5798 5798 5795 5793 5789 5786 5782 5778 5775 5772 5769 5766 5763 5760 5756 5754 5752 5748 5745 5743 5741
5703 5705 5720 5747 5767 5771 5764 5761 5777 5777 5782 5786 5791 5790 5786 5796 5799 5798 5798 5798 5798 5798 5797 5794 5793 5791 5787 5783 5781 5778 5775 5772 5770 5767 5763 5760 5756 5754 5752 5749 5746 5743 5741 5738
5698 5699 5701 5731 5762 5774 5763 5745 5770 5774 5773 5777 5780 5763 5769 5787 5792 5793 5793 5795 5794 5792 5790 5787 5788 5786 5781 5777 5774 5771 5771 5769 5767 5764 5761 5758 5755 5753 5750 5747 5744 5742 5738 5736
5692 5692 5706 5739 5759 5762 5730 5733 5760 5767 5769 5770 5767 5767 5775 5781 5783 5785 5785 5787 5788 5786 5783 5781 5781 5779 5774 5770 5768 5768 5767 5765 5763 5761 5758 5756 5753 5750 5747 5744 5740 5737 5734 5731
5683 5682 5696 5738 5744 5734 5733 5749 5754 5758 5761 5761 5763 5767 5770 5772 5774 5775 5775 5777 5778 5777 5775 5775 5775 5771 5766 5764 5765 5764 5762 5758 5756 5755 5754 5752 5749 5746 5743 5740 5735 5732 5728 5725
5689 5693 5712 5728 5732 5737 5740 5741 5745 5748 5752 5754 5755 5756 5758 5760 5763 5765 5767 5767 5768 5767 5766 5765 5766 5764 5759 5759 5760 5757 5754 5751 5750 5749 5748 5746 5744 5740 5737 5734 5730 5727 5723 5721
5685 5696 5707 5717 5726 5731 5734 5736 5739 5742 5743 5746 5744 5745 5746 5748 5750 5752 5754 5755 5756 5756 5755 5754 5755 5755 5754 5754 5753 5751 5747 5745 5744 5742 5741 5739 5738 5736 5733 5729 5726 5723 5720 5717
5674 5686 5695 5705 5713 5719 5722 5726 5728 5730 5734 5736 5736 5735 5735 5736 5739 5741 5742 5742 5744 5744 5745 5745 5746 5745 5747 5747 5746 5742 5740 5738 5736 5734 5733 5731 5730 5729 5728 5727 5725 5721 5718 5715
5664 5678 5679 5688 5701 5709 5710 5712 5715 5716 5719 5724 5726 5725 5727 5727 5729 5732 5733 5734 5734 5734 5735 5736 5737 5737 5738 5740 5739 5736 5733 5731 5728 5727 5726 5725 5723 5721 5721 5721 5720 5718 5716 5713
5671 5678 5679 5686 5693 5698 5700 5702 5705 5707 5709 5711 5715 5717 5718 5718 5720 5722 5724 5725 5726 5727 5727 5729 5729 5729 5731 5732 5732 5729 5727 5724 5722 5720 5719 5718 5716 5714 5711 5711 5711 5711 5709 5707
5671 5671 5670 5676 5680 5686 5688 5692 5695 5698 5700 5702 5704 5707 5708 5709 5710 5712 5713 5715 5718 5719 5720 5721 5721 5721 5723 5724 5723 5721 5720 5718 5716 5714 5713 5711 5710 5708 5706 5703 5701 5700 5701 5700
5663 5666 5666 5670 5673 5676 5678 5681 5682 5684 5687 5690 5694 5696 5698 5698 5699 5701 5704 5706 5708 5709 5710 5711 5711 5712 5714 5715 5713 5713 5712 5710 5709 5707 5706 5704 5703 5701 5700 5698 5696 5694 5692 5690
5657 5660 5662 5663 5664 5667 5669 5671 5671 5673 5676 5678 5681 5684 5688 5691 5692 5693 5694 5696 5697 5697 5700 5702 5703 5705 5706 5705 5704 5703 5703 5703 5702 5700 5698 5696 5695 5694 5692 5691 5689 5687 5686 5684
5646 5648 5652 5653 5656 5659 5661 5663 5665 5667 5668 5669 5672 5676 5678 5680 5681 5682 5684 5688 5689 5690 5693 5694 5695 5697 5697 5696 5694 5693 5692 5693 5693 5691 5690 5689 5688 5686 5685 5684 5682 5681 5680 5680
5644 5646 5649 5650 5652 5653 5654 5657 5658 5659 5661 5664 5666 5667 5669 5671 5671 5673 5675 5676 5678 5680 5684 5686 5687 5687 5688 5687 5685 5684 5683 5683 5683 5682 5682 5681 5679 5678 5677 5676 5676 5674 5673 5672
5641 5642 5645 5647 5648 5648 5649 5650 5652 5654 5656 5658 5659 5660 5661 5664 5666 5666 5666 5667 5668 5669 5674 5678 5679 5678 5677 5677 5677 5675 5675 5675 5674 5674 5674 5672 5670 5669 5668 5667 5667 5666 5665 5663
5637 5639 5640 5641 5644 5644 5645 5646 5647 5649 5651 5653 5653 5654 5655 5657 5659 5660 5659 5660 5663 5666 5669 5670 5670 5669 5668 5668 5668 5667 5666 5666 5665 5665 5664 5663 5661 5660 5658 5658 5657 5656 5656 5655
5630 5633 5634 5636 5638 5640 5641 5642 5643 5644 5646 5648 5648 5649 5650 5650 5652 5652 5652 5653 5657 5659 5661 5661 5661 5660 5660 5660 5660 5659 5658 5658 5657 5656 5655 5654 5652 5651 5650 5649 5648 5648 5647 5646
5624 5626 5628 5630 5631 5631 5634 5636 5637 5638 5640 5641 5643 5644 5644 5644 5644 5645 5647 5648 5650 5652 5652 5652 5653 5653 5653 5652 5651 5650 5650 5649 5648 5647 5646 5645 5644 5642 5641 5640 5639 5640 5640 5639
5619 5621 5622 5624 5624 5626 5628 5629 5631 5632 5633 5634 5635 5637 5638 5638 5639 5639 5639 5642 5644 5645 5645 5645 5646 5646 5645 5644 5643 5642 5641 5640 5639 5639 5638 5637 5636 5635 5633 5633 5632 5632 5631 5631
5615 5617 5618 5619 5619 5620 5620 5623 5625 5627 5628 5630 5631 5633 5633 5633 5633 5635 5636 5637 5639 5638 5637 5637 5637 5637 5636 5635 5634 5633 5632 5632 5631 5630 5630 5629 5627 5626 5625 5625 5625 5624 5624 5623
5613 5614 5615 5615 5615 5615 5616 5619 5620 5622 5623 5624 5626 5627 5628 5629 5628 5628 5629 5630 5630 5630 5630 5630 5629 5628 5627 5627 5626 5625 5624 5624 5624 5623 5622 5621 5620 5618 5617 5616 5615 5615 5615 5614
5610 5611 5612 5613 5613 5613 5614 5615 5616 5617 5618 5618 5620 5621 5621 5622 5622 5622 5622 5622 5623 5622 5622 5621 5621 5620 5619 5619 5618 5618 5617 5617 5616 5615 5614 5612 5611 5610 5609 5608 5608 5607 5606 5605
5609 5609 5611 5612 5613 5613 5614 5613 5612 5613 5614 5615 5614 5615 5615 5616 5616 5616 5616 5615 5615 5615 5615 5614 5614 5614 5612 5612 5611 5610 5609 5609 5608 5606 5605 5604 5603 5603 5602 5601 5600 5600 5599 5597